When you browse on this site, cookies collect data to enhance your experience and personalize the content and advertising you see.
Visit our Privacy Policy to learn more. By continuing to use the site, you agree to this use of cookies and data.
  • In Latvia
  • List of Countries
  • For 7 days
  • Water Temperature
  • Satellite Maps
  • Weather Map
  • Weather Widgets
  • user-avatar
    Login

    Hourly Weather Barra

    Today, 18 February, Monday

    Time Temperature Precipitation Wind Pressure Humidity
    00:00 +23°C° 0 mm 0 mps 746 mmHg 90%
    01:00 +23°C° 0 mm 0 mps 746 mmHg 91%
    02:00 +23°C° 0 mm 0 mps 746 mmHg 92%
    03:00 +23°C° 0 mm 0 mps 746 mmHg 93%
    04:00 +25°C° 0 mm 1 mps 746 mmHg 93%
    05:00 +25°C° 0 mm 1 mps 746 mmHg 92%
    06:00 +25°C° 0 mm 1 mps 746 mmHg 91%
    07:00 +25°C° 0 mm 1 mps 746 mmHg 90%
    08:00 +28°C° 0 mm 1 mps 746 mmHg 80%
    09:00 +31°C° 0 mm 1 mps 746 mmHg 69%
    10:00 +33°C° 0 mm 1 mps 747 mmHg 62%
    11:00 +34°C° 0 mm 1 mps 746 mmHg 57%
    12:00 +35°C° 0 mm 1 mps 746 mmHg 52%
    13:00 +37°C° 0 mm 2 mps 745 mmHg 47%
    14:00 +37°C° 0 mm 2 mps 745 mmHg 51%
    15:00 +36°C° 0 mm 2 mps 745 mmHg 55%
    16:00 +34°C° 0 mm 3 mps 744 mmHg 61%
    17:00 +33°C° 0 mm 3 mps 744 mmHg 69%
    18:00 +30°C° 0 mm 2 mps 745 mmHg 78%
    19:00 +28°C° 0 mm 2 mps 745 mmHg 87%
    20:00 +28°C° 0 mm 2 mps 745 mmHg 89%
    21:00 +27°C° 0 mm 2 mps 745 mmHg 91%
    22:00 +27°C° 0 mm 3 mps 746 mmHg 92%
    23:00 +27°C° 0.3 mm 2 mps 746 mmHg 92%

    Tomorrow, 19 February, Tuesday

    Time Temperature Precipitation Wind Pressure Humidity
    00:00 +26°C° 0.3 mm 2 mps 746 mmHg 92%
    01:00 +26°C° 0.3 mm 2 mps 745 mmHg 92%
    02:00 +26°C° 0 mm 2 mps 745 mmHg 92%
    03:00 +26°C° 0 mm 1 mps 745 mmHg 92%
    04:00 +25°C° 0 mm 1 mps 745 mmHg 92%
    05:00 +26°C° 0 mm 1 mps 745 mmHg 90%
    06:00 +26°C° 0 mm 1 mps 745 mmHg 88%
    07:00 +26°C° 0 mm 1 mps 745 mmHg 87%
    08:00 +29°C° 0 mm 1 mps 745 mmHg 74%
    09:00 +32°C° 0 mm 1 mps 745 mmHg 61%
    10:00 +36°C° 0 mm 1 mps 745 mmHg 48%
    11:00 +37°C° 0 mm 1 mps 745 mmHg 43%
    12:00 +39°C° 0 mm 2 mps 744 mmHg 38%
    13:00 +41°C° 0 mm 2 mps 743 mmHg 34%
    14:00 +40°C° 0 mm 2 mps 743 mmHg 37%
    15:00 +39°C° 0 mm 3 mps 743 mmHg 40%
    16:00 +38°C° 0 mm 3 mps 742 mmHg 43%
    17:00 +36°C° 0 mm 3 mps 742 mmHg 53%
    18:00 +34°C° 0 mm 2 mps 742 mmHg 64%
    19:00 +30°C° 0 mm 2 mps 743 mmHg 74%
    20:00 +30°C° 0 mm 2 mps 743 mmHg 74%
    21:00 +30°C° 0 mm 1 mps 744 mmHg 75%
    22:00 +29°C° 0 mm 1 mps 744 mmHg 75%
    23:00 +29°C° 0 mm 1 mps 744 mmHg 76%

    Day after tomorrow, 20 February, Wednesday

    Time Temperature Precipitation Wind Pressure Humidity
    00:00 +28°C° 0 mm 1 mps 744 mmHg 77%
    01:00 +27°C° 0 mm 1 mps 744 mmHg 78%
    02:00 +27°C° 0 mm 1 mps 743 mmHg 77%
    03:00 +27°C° 0 mm 1 mps 743 mmHg 76%
    04:00 +26°C° 0 mm 2 mps 742 mmHg 75%
    05:00 +26°C° 0 mm 2 mps 743 mmHg 72%
    06:00 +27°C° 0 mm 3 mps 743 mmHg 70%
    07:00 +27°C° 0 mm 3 mps 743 mmHg 67%
    08:00 +30°C° 0 mm 3 mps 743 mmHg 59%
    09:00 +34°C° 0 mm 3 mps 744 mmHg 52%
    10:00 +37°C° 0 mm 3 mps 744 mmHg 44%
    11:00 +39°C° 0 mm 3 mps 744 mmHg 37%
    12:00 +41°C° 0 mm 2 mps 743 mmHg 30%
    13:00 +43°C° 0 mm 2 mps 743 mmHg 22%
    14:00 +43°C° 0 mm 2 mps 742 mmHg 24%
    15:00 +43°C° 0 mm 3 mps 741 mmHg 26%
    16:00 +43°C° 0 mm 3 mps 740 mmHg 27%
    17:00 +38°C° 0 mm 3 mps 741 mmHg 42%
    18:00 +35°C° 0 mm 2 mps 741 mmHg 56%
    19:00 +31°C° 0 mm 2 mps 741 mmHg 71%
    20:00 +30°C° 0 mm 2 mps 742 mmHg 69%
    21:00 +29°C° 0 mm 1 mps 742 mmHg 67%
    22:00 +28°C° 0 mm 1 mps 743 mmHg 65%
    23:00 +28°C° 0 mm 1 mps 742 mmHg 60%

    21 February, Thursday

    Time Temperature Precipitation Wind Pressure Humidity
    00:00 +27°C° 0 mm 1 mps 742 mmHg 54%
    01:00 +27°C° 0 mm 2 mps 742 mmHg 49%
    02:00 +27°C° 0 mm 2 mps 742 mmHg 45%
    03:00 +26°C° 0 mm 2 mps 742 mmHg 42%
    04:00 +26°C° 0 mm 2 mps 742 mmHg 38%
    05:00 +26°C° 0 mm 2 mps 742 mmHg 39%
    06:00 +26°C° 0 mm 3 mps 742 mmHg 39%
    07:00 +26°C° 0 mm 3 mps 743 mmHg 40%
    08:00 +29°C° 0 mm 3 mps 743 mmHg 35%
    09:00 +33°C° 0 mm 3 mps 743 mmHg 30%
    10:00 +36°C° 0 mm 3 mps 744 mmHg 26%
    11:00 +38°C° 0 mm 3 mps 743 mmHg 23%
    12:00 +40°C° 0 mm 3 mps 743 mmHg 20%
    13:00 +43°C° 0 mm 3 mps 742 mmHg 17%
    14:00 +42°C° 0 mm 3 mps 742 mmHg 21%
    15:00 +40°C° 0 mm 3 mps 741 mmHg 25%
    16:00 +39°C° 0 mm 3 mps 740 mmHg 29%
    17:00 +36°C° 0 mm 3 mps 741 mmHg 46%
    18:00 +31°C° 0 mm 2 mps 741 mmHg 63%
    19:00 +28°C° 0 mm 1 mps 742 mmHg 80%
    20:00 +28°C° 0 mm 1 mps 742 mmHg 84%
    21:00 +27°C° 0 mm 1 mps 743 mmHg 87%
    22:00 +27°C° 0 mm 1 mps 743 mmHg 90%
    23:00 +26°C° 0 mm 1 mps 743 mmHg 88%

    22 February, Friday

    Time Temperature Precipitation Wind Pressure Humidity
    00:00 +26°C° 0 mm 1 mps 743 mmHg 86%
    01:00 +25°C° 0 mm 1 mps 742 mmHg 84%
    02:00 +25°C° 0 mm 1 mps 742 mmHg 80%
    03:00 +25°C° 0 mm 1 mps 742 mmHg 77%
    04:00 +24°C° 0 mm 1 mps 741 mmHg 73%
    05:00 +24°C° 0 mm 1 mps 742 mmHg 67%
    06:00 +24°C° 0 mm 2 mps 742 mmHg 61%
    07:00 +24°C° 0 mm 2 mps 743 mmHg 55%
    08:00 +27°C° 0 mm 1 mps 743 mmHg 45%
    09:00 +31°C° 0 mm 1 mps 743 mmHg 34%
    10:00 +35°C° 0 mm 1 mps 744 mmHg 24%
    11:00 +36°C° 0 mm 1 mps 743 mmHg 23%
    12:00 +38°C° 0 mm 2 mps 743 mmHg 22%
    13:00 +39°C° 0 mm 2 mps 742 mmHg 22%
    14:00 +38°C° 0 mm 3 mps 742 mmHg 28%
    15:00 +37°C° 0 mm 3 mps 742 mmHg 34%
    16:00 +35°C° 0 mm 3 mps 741 mmHg 40%
    17:00 +32°C° 0 mm 2 mps 742 mmHg 54%
    18:00 +29°C° 0 mm 2 mps 742 mmHg 68%
    19:00 +27°C° 0 mm 1 mps 743 mmHg 82%
    20:00 +27°C° 0 mm 1 mps 743 mmHg 85%
    21:00 +27°C° 0 mm 1 mps 744 mmHg 89%
    22:00 +26°C° 0 mm 1 mps 745 mmHg 92%
    23:00 +26°C° 0.1 mm 1 mps 744 mmHg 92%

    23 February, Saturday

    Time Temperature Precipitation Wind Pressure Humidity
    00:00 +27°C° 0.1 mm 1 mps 744 mmHg 92%
    01:00 +27°C° 0.1 mm 2 mps 744 mmHg 92%
    02:00 +26°C° 0.1 mm 2 mps 744 mmHg 93%
    03:00 +26°C° 0.1 mm 2 mps 744 mmHg 95%
    04:00 +26°C° 0.1 mm 1 mps 744 mmHg 96%
    05:00 +26°C° 0 mm 1 mps 744 mmHg 95%
    06:00 +26°C° 0 mm 1 mps 745 mmHg 95%
    07:00 +26°C° 0 mm 2 mps 745 mmHg 94%
    08:00 +28°C° 0 mm 1 mps 745 mmHg 85%
    09:00 +30°C° 0 mm 1 mps 746 mmHg 76%
    10:00 +32°C° 0 mm 1 mps 746 mmHg 66%
    11:00 +34°C° 0 mm 2 mps 745 mmHg 63%
    12:00 +35°C° 0 mm 2 mps 745 mmHg 59%
    13:00 +35°C° 0 mm 2 mps 744 mmHg 55%
    14:00 +35°C° 0 mm 2 mps 744 mmHg 57%
    15:00 +34°C° 0 mm 3 mps 744 mmHg 60%
    16:00 +34°C° 0 mm 3 mps 744 mmHg 62%
    17:00 +31°C° 0 mm 3 mps 744 mmHg 70%
    18:00 +30°C° 0 mm 2 mps 745 mmHg 79%
    19:00 +28°C° 0 mm 2 mps 745 mmHg 87%
    20:00 +28°C° 0.1 mm 2 mps 746 mmHg 88%
    21:00 +28°C° 0.1 mm 2 mps 746 mmHg 90%
    22:00 +28°C° 0.1 mm 2 mps 747 mmHg 92%
    23:00 +27°C° 0.2 mm 2 mps 747 mmHg 93%
    Show more